Weather History for KAPC - February, 2014

Change the Weather History Date:

Wednesday, February 5, 2014

  Actual Average Record
Temperature  
Mean Temperature 48 °F 48 °F  
Max Temperature 52 °F 58 °F 81 °F (2011)
Min Temperature 43 °F 38 °F 30 °F (1999)
Degree Days  
Heating Degree Days 17    
Month to date heating degree days 108  
Since 1 July heating degree days 1940  
Cooling Degree Days 0    
Month to date cooling degree days 0  
Year to date cooling degree days 0  
Moisture  
Dew Point 33 °F    
Average Humidity 80    
Maximum Humidity 100    
Minimum Humidity 59    
Precipitation  
Precipitation 0.14 in - 1.42 in (1951)
Month to date precipitation 0.44  
Year to date precipitation 0.52  
Since 1 July precipitation 2.72  
Sea Level Pressure  
Sea Level Pressure 30.13 in    
Wind  
Wind Speed 4 mph (SW)    
Max Wind Speed 14 mph    
Max Gust Speed 17 mph    
Visibility 5 miles    
Events Rain    
T = Trace of Precipitation, MM = Missing Value Source: NWS Daily Summary

Daily Weather History Graph

Daily Weather History Graph

Search for Another Location

Airport or City:

Trip Planner

Search our weather history database for the weather conditions in past years. The results will help you decide how hot, cold, wet, or windy it might be!

Date:

Astronomy

Feb. 05, 2014 Rise Set
Actual Time 7:10 AM PST 5:36 PM PST
Civil Twilight 6:42 AM PST 6:04 PM PST
Nautical Twilight 6:11 AM PST 6:35 PM PST
Astronomical Twilight 5:40 AM PST 7:06 PM PST
Moon 10:34 AM PST (2/5) No Moon Set
Length of Visible Light 11h 21m
Length of Day
10h 26m
Waxing Crescent, 40% of the Moon is Illuminated
Feb 5
Waxing Crescent
Feb 6
First Quarter
Feb 14
Full
Feb 22
Last Quarter
Mar 1
New

Hourly Weather History & Observations

Time (PST) Temp. Windchill Dew Point Humidity Pressure Visibility Wind Dir Wind Speed Gust Speed Precip Events Conditions
12:54 AM 30.0 °F 26.5 °F 30.0 °F 100% 30.12 in 6.0 mi SE 3.5 mph - N/A   Clear
1:54 AM 30.9 °F - 30.9 °F 100% 30.13 in 5.0 mi Calm Calm - N/A   Clear
1:58 AM 30.2 °F - 30.2 °F 100% 30.16 in 1.8 mi Calm Calm - N/A   Partly Cloudy
2:04 AM 32.0 °F - 30.2 °F 93% 30.16 in 0.8 mi Calm Calm - N/A   Unknown
2:16 AM 30.2 °F - 30.2 °F 100% 30.16 in 0.2 mi Calm Calm - N/A   Unknown
2:25 AM 28.4 °F - 28.4 °F 100% 30.16 in 1.0 mi Calm Calm - N/A   Unknown
2:27 AM 28.4 °F - 28.4 °F 100% 30.16 in 2.0 mi Calm Calm - N/A   Partly Cloudy
2:36 AM 28.4 °F - 28.4 °F 100% 30.16 in 1.0 mi Calm Calm - N/A   Unknown
2:39 AM 26.6 °F - 26.6 °F 100% 30.16 in 0.5 mi Calm Calm - N/A   Unknown
2:54 AM 28.9 °F - 28.9 °F 100% 30.13 in 0.5 mi Calm Calm - N/A   Unknown
3:08 AM 28.4 °F - 28.4 °F 100% 30.15 in 1.0 mi Calm Calm - N/A   Unknown
3:21 AM 26.6 °F - 26.6 °F 100% 30.14 in 0.8 mi Calm Calm - N/A   Clear
3:27 AM 28.4 °F - 28.4 °F 100% 30.14 in 3.0 mi Calm Calm - N/A   Clear
3:45 AM 26.6 °F - 26.6 °F 100% 30.15 in 1.2 mi Calm Calm - N/A   Partly Cloudy
3:47 AM 26.6 °F - 26.6 °F 100% 30.15 in 0.8 mi Calm Calm - N/A   Unknown
3:54 AM 28.9 °F 25.2 °F 28.0 °F 96% 30.13 in 0.2 mi NW 3.5 mph - N/A   Unknown
4:37 AM 30.2 °F - 30.2 °F 100% 30.18 in 1.0 mi Calm Calm - N/A   Unknown
4:54 AM 25.0 °F 20.7 °F 24.1 °F 96% 30.15 in 1.2 mi ESE 3.5 mph - N/A   Clear
5:05 AM 26.6 °F - 26.6 °F 100% 30.18 in 0.8 mi Calm Calm - N/A   Clear
5:15 AM 26.6 °F - 26.6 °F 100% 30.18 in 1.2 mi Calm Calm - N/A   Clear
5:18 AM 26.6 °F - 26.6 °F 100% 30.18 in 3.0 mi Calm Calm - N/A   Clear
5:54 AM 27.0 °F - 27.0 °F 100% 30.16 in 10.0 mi Calm Calm - N/A   Clear
6:54 AM 28.9 °F 23.9 °F 28.9 °F 100% 30.16 in 10.0 mi North 4.6 mph - N/A   Clear
7:54 AM 32.0 °F - 32.0 °F 100% 30.17 in 10.0 mi Calm Calm - N/A   Clear
8:54 AM 36.0 °F - 36.0 °F 100% 30.18 in 10.0 mi Calm Calm - N/A   Clear
9:54 AM 44.1 °F - 37.0 °F 76% 30.18 in 10.0 mi Calm Calm - N/A   Clear
11:54 AM 48.9 °F - 37.0 °F 64% 30.16 in - South 5.8 mph - N/A   Unknown
12:54 PM 51.1 °F - 37.9 °F 61% 30.13 in 10.0 mi SW 10.4 mph - N/A   Clear
1:54 PM 52.0 °F - 37.0 °F 57% 30.11 in 10.0 mi SW 5.8 mph - N/A   Clear
2:54 PM 52.0 °F - 39.0 °F 61% 30.09 in 10.0 mi SSW 8.1 mph - N/A   Mostly Cloudy
3:54 PM 52.0 °F - 37.9 °F 59% 30.09 in 10.0 mi SW 8.1 mph - N/A   Overcast
4:54 PM 50.0 °F - 37.0 °F 61% 30.09 in 10.0 mi West 12.7 mph - N/A   Overcast
5:54 PM 46.9 °F - 41.0 °F 80% 30.10 in 10.0 mi West 8.1 mph - 0.00 in   Overcast
6:54 PM 46.0 °F 44.8 °F 43.0 °F 89% 30.09 in 10.0 mi WSW 3.5 mph - 0.01 in Rain Light Rain
7:54 PM 46.0 °F 44.8 °F 43.0 °F 89% 30.09 in 10.0 mi SW 3.5 mph - 0.00 in Rain Light Rain
8:54 PM 44.1 °F 42.5 °F 43.0 °F 96% 30.08 in 8.0 mi WSW 3.5 mph - 0.04 in Rain Light Rain
9:54 PM 44.1 °F 42.5 °F 42.1 °F 93% 30.07 in 9.0 mi ENE 3.5 mph - 0.01 in Rain Light Rain
10:49 PM 44.6 °F 43.1 °F 42.8 °F 93% 30.08 in 8.0 mi NE 3.5 mph - 0.04 in Rain Light Rain
10:54 PM 44.1 °F 41.5 °F 42.1 °F 93% 30.05 in 8.0 mi ENE 4.6 mph - 0.04 in Rain Light Rain
11:54 PM 44.1 °F 41.5 °F 43.0 °F 96% 30.05 in 7.0 mi North 4.6 mph - 0.04 in Rain Light Rain